{"data":{"norad_id":65540,"epoch":"2026-09-20T11:12:49.300992Z","epoch_age_seconds":114755,"freshness":"FRESH","line1":"1 65540U 25200W   26263.46723728  .00014319  00000+0  44499-3 0  9997","line2":"2 65540  97.2850 329.8159 0000944  94.4318 265.7033 15.33446052 58558","mean_motion":15.33446052,"eccentricity":9.44e-5,"inclination_deg":97.285,"raan_deg":329.8159,"arg_perigee_deg":94.4318,"mean_anomaly_deg":265.7033,"bstar":0.00044499,"rev_number":5855,"period_min":93.906140233749,"perigee_km":464.89400135507,"apogee_km":466.18608758106,"semimajor_km":6843.6770444681,"source":"CELESTRAK","updated_at":"2026-09-21T09:00:35.651898Z"}}